Regional Weather Roundup
Issued by NWS

Home | Current Version | Previous Version | Graphics & Text | Print | Product List | Glossary On
Versions: 1 2 3 4 5 6 7 8 9 10 11 12 13 14 15 16 17 18 19 20 21 22 23 24 25 26 27 28 29 30 31 32 33 34 35 36 37 38 39 40 41 42 43 44 45 46 47 48 49 50
000
ASUS43 KMKX 180120
RWRWI

WISCONSIN REGIONAL WEATHER ROUNDUP
NATIONAL WEATHER SERVICE MILWAUKEE/SULLIVAN WI
800 PM CDT FRI APR 17 2015

NOTE: "FAIR" INDICATES FEW OR NO CLOUDS BELOW 12,000 FEET WITH NO
SIGNIFICANT WEATHER AND/OR OBSTRUCTIONS TO VISIBILITY.

WIZ001-002-006>008-014>016-023>028-180200-
NORTHWEST WISCONSIN

CITY           SKY/WX    TMP DP  RH WIND       PRES   REMARKS
SUPERIOR ARPT  CLEAR     65  25  22 NW8       29.97R
ASHLAND        CLEAR     64  23  21 W6        29.97R
HAYWARD        CLEAR     68  22  17 W3        29.99R
SIREN          PTCLDY    63  22  20 CALM      30.02R
CUMBERLAND     PTCLDY    61  23  23 NW5       30.01S
RICE LAKE      PTCLDY    64  31  28 W3        30.02S
CHETEK         PTCLDY    65  33  30 W3        30.01R
LADYSMITH      PTCLDY    64  31  29 W6        30.01R
EAU CLAIRE     CLEAR     65  35  33 NW6       29.99S
MENOMONIE      CLEAR     67  32  26 NW7       30.00S
NEW RICHMOND   CLEAR     66  28  24 NW5       30.02S
OSCEOLA        PTCLDY    66  28  24 NW3       30.04S
$$

WIZ003>005-009-010-017-018-180200-
NORTH CENTRAL WISCONSIN

CITY           SKY/WX    TMP DP  RH WIND       PRES   REMARKS
MANITOWISH WTR CLEAR     60  31  33 CALM      29.98R
ARBOR VITAE    CLEAR     64  26  23 CALM      29.98S
WOODRUFF       CLEAR     64  26  23 CALM      29.98S
RHINELANDER    CLEAR     64  28  25 NW5       29.98R
EAGLE RIVER    CLEAR     60  24  25 W3        29.96S
LAND O LAKES   CLEAR     55  32  42 CALM      29.97S
PHILLIPS       PTCLDY    65  30  26 CALM      29.98R
TOMAHAWK       CLEAR     62  32  32 CALM      29.98R
MEDFORD        CLEAR     63  38  39 W6        29.99S
MERRILL        CLEAR     64  38  37 W6        29.97S
$$

WIZ029-030-035-036-043>047-180200-
CENTRAL WISCONSIN

CITY           SKY/WX    TMP DP  RH WIND       PRES   REMARKS
WAUSAU         CLEAR     65  40  39 W9        29.96R
MOSINEE        CLEAR     64  39  39 W5        29.99R
MARSHFIELD     CLEAR     66  43  43 NW6       29.98S
STEVENS POINT  PTCLDY    67  42  39 CALM      29.98S
WAUPACA        PTCLDY    69  39  32 CALM      29.96S
WAUTOMA        PTCLDY    68  42  38 CALM      29.97S
WISC RAPIDS    CLEAR     69  39  33 NW3       29.98S
CAMP DOUGLAS   PTCLDY    63  43  48 W5        29.97S
$$

WIZ011>013-019>022-031-037>040-048>050-180200-
NORTHEAST WISCONSIN

CITY           SKY/WX    TMP DP  RH WIND       PRES   REMARKS
ANTIGO         CLEAR     62  44  50 W9        29.97S
SHAWANO        CLEAR     71  39  31 W5        29.95R
OCONTO         CLEAR     56  39  53 SE5       29.95S
STURGEON BAY   CLEAR     50  37  62 SE10      29.99S
GREEN BAY      CLEAR     62  45  53 S6        29.96S
MANITOWOC      CLEAR     45  42  89 E5        29.99S
APPLETON       PTCLDY    64  43  45 S9        29.97S
CLINTONVILLE   PTCLDY    68  37  32 W3        29.95R
OSHKOSH        PTCLDY    60  46  59 S5        29.96S
$$

WIZ032>034-041-042-053>061-180200-
SOUTHWEST WISCONSIN

CITY           SKY/WX    TMP DP  RH WIND       PRES   REMARKS
LA CROSSE      PTCLDY    68  47  46 CALM      29.97S
SPARTA         CLEAR     67  40  38 CALM      29.99R
VIROQUA        PTCLDY    69  40  34 NW3       30.00S
BOSCOBEL       PTCLDY    68  44  42 CALM      29.98R
PRAIRIE DU CHI PTCLDY    72  41  32 CALM      29.98R
PLATTEVILLE    PTCLDY    70  47  43 CALM      29.99S
$$

WIZ056-057-062-063-064-067-068-180200-
SOUTH CENTRAL WISCONSIN

CITY           SKY/WX    TMP DP  RH WIND       PRES   REMARKS
REEDSBURG      CLEAR     70  43  36 CALM      29.97S
BARABOO/DELLS  CLEAR     70  38  31 W3        29.97S
LONE ROCK      PTCLDY    68  45  43 NW3       29.97S
MINERAL POINT  PTCLDY    72  41  33 W3        30.00S
MADISON        PTCLDY    70  45  40 CALM      29.97S
MIDDLETON      PTCLDY    67  45  44 CALM      29.98S
WATERTOWN      CLEAR     64  46  51 E6        29.98S
MONROE         PTCLDY    72  45  37 W8        29.99R
JANESVILLE     NOT AVBL
$$

WIZ051-052-058>065-066-070>072-180200-
SOUTHEAST WISCONSIN

CITY           SKY/WX    TMP DP  RH WIND       PRES   REMARKS
MILWAUKEE      PTCLDY    49  38  65 CALM      30.00S
WAUKESHA       PTCLDY    63  41  45 E3        30.00S
MILWAUKEE/TIMM CLEAR     55  37  50 E7        30.01S
RACINE         MOCLDY    50  40  68 NE3       30.02S
BURLINGTON     PTCLDY    60  45  56 E5        29.99S
KENOSHA        PTCLDY    50  43  77 E7        30.00S
FOND DU LAC    PTCLDY    63  44  50 S7        29.97S
SHEBOYGAN      PTCLDY    52  40  63 S8        29.99F
WEST BEND      CLEAR     55  34  44 SE3       30.00S
JUNEAU         CLEAR     62  47  56 SE7       29.98F
$$

LSZ147-162-180200-
LAKE SUPERIOR

STATION/POSITION TIME  TEMP    WIND        PRES    WAVE
                       AIR SEA DIR/SP/G            HT/PER
                 (UTC) (F)     (DEG/KT/KT) (MB)    (FT/S)
DEVILS ISLAND    0100   52     250/ 18/ 19 1014.2R
PORT WING        0000   68     250/  9/ 12 1014.6
SAXON HARBOR     0000   62        CALM     1014.2
$$

LMZ867-665-643>646-180200-
LAKE MICHIGAN

STATION/POSITION TIME  TEMP    WIND        PRES    WAVE
                       AIR SEA DIR/SP/G            HT/PER
                 (UTC) (F)     (DEG/KT/KT) (MB)    (FT/S)
CHAMBERS ISLAND  0000   57     120/  5/  7 1014.6F
NORTHPORT PIER   0000   54     160/  6/ 10 1014.9F
SISTER BAY       0047   53     140/ 11/ 14   N/A
KEWAUNEE LAKESHO 0000   46     170/  8/  9 1014.9F
SHEBOYGAN LAKESH 0100   45     190/ 11/ 11 1016.2F
PORT WASHINGTON  0000   45      40/  2/  4 1016.9F
MILWAUKEE LAKESH 0100   43      50/  7/  7   N/A
KENOSHA   LAKESH 0100   46      40/  6/  7 1015.9S
$$

TC  - TEMPERATURE IN CELSIUS
VSB - VISIBILITY IN STATUTE MILES
WCI - WIND CHILL INDEX
HX  - HEAT INDEX




USA.gov is the U.S. government's official web portal to all federal, state and local government web resources and services.